Probability
9 12 15 12 4 0 0 0 0 0 0 0 0 0 0 0 0 0 0 0 0 0 0 0 0 0 0 0 0 0 0 0 0 0 0 0 0 0 0 0 0 0 0 0 0 0 0 0 0
6 8 10 6 2 0 0 0 0 0 0 0 0 0 0 0 0 0 0 0 0 0 0 0 0 0 0 0 0 0 0 0 0 0 0 0 0 0 0 0 0 0 0 0 0 0 0 0 0
3 4 4 2 0 0 0 0 0 0 0 0 0 0 0 0 0 0 0 0 0 0 0 0 0 0 0 0 0 0 0 0 0 0 0 0 0 0 0 0 0 0 0 0 0 0 0 0 0
1 1 1 0 0 0 0 0 0 0 0 0 0 0 0 0 0 0 0 0 0 0 1 1 1 0 0 0 0 0 0 0 0 0 0 0 0 0 0 0 0 0 0 0 0 0 0 0 0
1 0 0 0 0 0 0 0 0 0 0 0 0 0 0 0 0 0 0 0 0 1 2 2 1 0 0 0 0 0 0 0 0 0 0 0 0 0 0 0 0 0 0 0 0 0 0 0 0
1 0 0 0 0 0 0 0 1 1 1 1 1 0 0 0 0 0 0 0 0 1 3 3 2 0 0 0 0 0 0 0 0 0 0 0 0 0 0 0 0 0 0 0 0 0 0 0 0
0 0 0 0 0 0 0 0 2 2 3 3 3 1 0 0 0 0 1 1 1 2 3 4 2 1 1 0 0 0 1 1 0 0 0 0 0 0 0 0 0 0 0 0 0 0 0 0 0
0 0 0 0 0 0 1 1 2 4 6 6 6 4 3 2 2 2 3 3 2 2 2 4 3 3 2 1 1 2 2 2 1 0 0 0 0 0 0 0 0 0 0 0 0 0 0 0 0
0 0 0 1 4 5 6 4 4 5 7 8 7 7 6 4 4 5 6 6 6 6 4 4 5 5 5 4 5 5 4 3 2 1 1 0 0 0 0 0 0 0 0 0 0 0 0 0 0
0 0 1 3 7 9 9 8 5 4 5 5 6 5 4 4 4 4 6 8 11 11 9 8 10 11 10 10 11 10 7 5 3 2 1 0 0 0 0 1 1 1 0 0 0 0 0 0 0
1 2 3 5 9 10 8 6 5 3 3 3 3 3 3 4 5 5 6 9 10 11 10 11 13 14 15 18 21 20 16 11 7 4 3 2 2 1 1 1 1 1 0 0 0 0 0 0 0
2 4 6 9 12 12 8 5 4 3 3 4 4 4 5 6 7 8 8 8 8 7 8 10 11 13 17 23 29 31 27 19 13 9 7 5 4 3 2 1 1 0 0 0 0 0 0 0 0
3 4 7 11 14 12 8 5 3 3 4 5 5 5 5 6 6 6 7 6 6 6 6 6 7 9 13 19 26 31 31 26 21 17 12 8 7 4 3 1 1 0 0 0 0 0 0 0 0
2 3 4 8 10 8 5 3 2 2 3 3 4 3 3 3 4 4 4 4 4 4 4 4 5 6 7 11 17 25 30 31 28 23 17 12 9 7 5 3 1 0 0 0 0 0 0 0 0
1 1 1 3 5 4 3 1 1 1 1 2 2 1 1 1 2 2 2 3 3 3 3 3 3 3 4 6 12 19 26 30 31 28 23 17 13 10 8 6 4 2 1 0 0 0 0 0 0
0 0 0 1 2 2 1 1 1 1 2 2 1 0 0 0 1 1 1 1 2 3 3 3 3 3 3 4 7 13 20 25 31 34 31 24 17 14 13 11 10 8 5 2 1 0 0 0 0
0 0 0 0 1 1 1 1 2 2 2 2 1 0 0 0 0 0 0 0 1 1 2 2 2 3 3 2 3 9 17 24 32 38 39 32 23 19 21 20 17 14 10 6 4 3 2 1 1
0 0 0 0 0 0 1 1 1 1 1 1 0 0 0 0 0 0 0 0 0 0 1 1 1 1 2 2 2 6 14 24 31 36 37 32 24 22 26 28 24 17 13 10 9 7 5 4 3
0 0 0 0 0 0 0 0 0 0 0 0 0 0 0 0 0 0 0 0 0 0 0 0 0 0 1 1 2 4 9 17 25 30 31 27 22 21 25 29 30 25 16 12 10 8 6 5 5
0 0 0 0 0 0 0 0 0 0 0 0 0 0 0 0 0 0 0 0 0 0 0 0 0 0 0 0 1 2 5 10 17 22 24 23 21 21 22 26 31 30 21 13 10 6 4 4 4
0 0 0 0 0 0 0 1 1 1 0 0 0 0 0 0 0 0 0 0 0 0 0 0 0 0 0 0 0 2 4 7 11 16 18 18 19 21 21 22 27 28 21 15 9 4 3 2 2
0 0 0 0 0 0 0 1 2 1 0 0 0 0 0 0 0 0 0 0 0 0 0 0 0 0 0 0 0 1 3 5 8 13 16 16 16 19 20 21 23 24 19 12 7 4 2 1 1
0 0 0 0 0 0 0 1 1 1 0 0 0 0 0 0 0 0 0 0 0 0 0 0 0 0 0 0 0 1 2 3 6 11 15 16 15 16 18 21 23 22 17 10 6 4 4 3 2
0 0 0 0 0 0 0 0 0 0 0 0 0 0 0 0 0 0 0 0 0 0 0 0 0 0 0 0 0 0 1 2 4 7 13 16 15 14 16 19 21 20 16 12 10 9 7 7 6
0 0 0 0 0 0 0 0 0 0 0 0 0 0 0 0 0 0 0 0 0 0 0 0 0 0 0 0 0 0 0 1 2 4 8 12 12 11 15 18 18 18 17 16 15 13 11 10 8
0 0 0 0 0 0 0 0 0 0 0 0 0 0 0 0 0 0 0 0 0 0 0 0 0 0 0 0 0 0 0 0 1 1 4 7 7 8 12 17 18 17 18 17 15 13 13 11 9
0 0 0 0 0 0 0 0 0 0 0 0 0 0 0 0 0 0 0 0 0 0 0 0 0 0 0 0 0 0 0 0 0 0 2 4 5 6 10 13 14 14 16 16 13 11 12 10 8
0 0 0 0 0 0 0 0 0 0 0 0 0 0 0 0 0 0 0 0 0 0 0 0 0 0 0 0 0 0 0 0 0 0 1 2 4 5 7 7 7 9 12 13 10 10 9 7 6
0 0 0 0 0 0 0 0 0 0 0 0 0 0 0 0 0 0 0 0 0 0 0 0 0 0 0 0 0 0 0 0 0 0 0 1 2 3 3 3 3 6 10 9 8 8 7 5 3
0 0 0 0 0 0 0 0 0 0 0 0 0 0 0 0 0 0 0 0 0 0 0 0 0 0 0 0 0 0 0 0 0 0 0 0 1 1 1 1 2 6 8 6 5 7 6 4 3
Wind_Speed
9 9 7 3 3 2 10 9 11 10 10 10 9 9 15 15 10 8 4 11 17 16 14 12 12 11 11 10 9 8 8 8 7 7 6 6 5 5 4 4 4 4 4 4 4 4 5 5 4
9 6 4 3 0 6 9 8 10 12 11 9 11 13 16 15 13 9 6 13 17 16 13 12 13 11 10 9 9 8 8 7 7 7 6 6 5 4 4 3 3 4 4 4 4 4 4 4 4
10 6 4 2 5 8 9 8 8 12 12 11 13 15 12 9 11 9 10 13 15 14 13 13 12 11 10 9 8 8 7 7 7 6 6 5 4 4 3 3 3 3 3 3 4 4 4 3 3
6 3 3 2 10 9 8 8 9 13 14 14 13 12 12 11 11 12 11 13 13 13 14 13 12 10 9 8 8 7 7 6 6 6 5 5 4 3 3 3 3 3 3 3 3 3 3 3 2
4 2 2 5 9 10 9 10 11 12 14 15 18 16 14 13 13 12 10 12 12 13 13 12 11 10 9 8 8 7 7 6 6 6 5 5 4 4 3 3 2 2 2 2 2 2 2 2 2
2 1 2 3 8 8 10 11 13 14 14 15 15 15 12 12 10 8 7 7 10 12 13 12 12 11 9 9 8 8 7 7 7 7 6 5 5 4 4 3 3 2 2 2 2 2 2 3 2
4 1 3 5 6 8 10 13 14 13 15 15 11 12 10 9 6 6 5 5 6 9 11 12 12 11 11 10 10 9 8 8 8 7 7 6 6 5 5 5 4 3 3 2 3 3 3 3 3
3 2 3 3 5 8 9 13 14 14 13 14 14 11 7 6 5 7 6 5 5 4 6 8 9 10 10 10 12 12 11 10 9 9 8 8 7 7 7 7 6 5 5 4 4 4 4 4 4
4 2 2 2 4 7 9 13 13 14 15 16 15 13 9 8 9 8 7 7 6 6 4 3 3 5 6 9 11 12 11 10 10 9 10 8 6 7 7 10 10 8 7 6 6 6 6 6 6
1 3 3 5 9 10 13 13 7 11 14 13 13 13 11 10 11 10 9 8 8 8 8 7 5 2 1 3 6 6 6 6 7 6 7 6 6 6 7 9 12 11 9 8 8 8 7 7 5
6 5 6 8 10 10 10 13 15 9 11 9 10 11 10 11 11 10 9 8 8 8 8 9 8 7 4 2 2 2 2 3 5 7 7 7 6 4 4 5 7 7 8 6 7 7 6 7 6
7 9 8 9 10 10 10 9 11 13 8 6 7 8 10 11 10 9 9 8 7 7 8 9 9 8 7 5 2 1 2 2 3 5 7 6 4 3 4 4 6 6 5 6 6 6 9 10 9
9 8 12 13 15 15 16 14 11 9 7 6 6 7 9 9 8 8 7 7 6 6 5 5 6 6 6 6 3 2 1 2 3 3 4 5 4 4 4 4 5 6 6 6 5 7 8 7 5
9 10 10 11 11 11 14 11 8 7 5 5 6 7 7 7 7 7 7 7 7 6 6 4 5 4 4 4 4 3 2 1 1 2 4 4 3 3 3 3 3 4 4 5 5 6 4 3 2
9 9 9 7 9 10 9 10 8 4 3 5 5 5 5 5 6 7 7 7 7 6 6 5 4 3 3 3 3 3 3 3 2 2 4 3 2 3 4 3 3 3 3 3 4 5 3 3 3
9 9 5 3 3 5 2 7 6 3 3 4 4 4 3 4 6 7 7 8 8 7 7 6 6 5 4 4 4 3 3 3 3 2 2 3 4 3 3 3 2 3 2 2 2 2 1 2 2
6 4 3 4 2 3 5 7 5 3 4 5 5 5 5 6 8 8 8 8 8 7 7 7 6 5 5 4 4 4 4 4 3 3 3 3 4 4 3 3 3 3 2 2 3 2 2 2 2
5 7 4 5 5 5 6 6 5 3 5 6 6 7 7 9 10 10 10 9 8 8 8 7 6 6 5 4 3 3 3 3 3 3 4 5 4 4 3 3 4 3 2 2 2 2 2 1 2
10 9 8 6 5 3 3 4 5 4 5 7 8 9 10 10 11 10 10 9 9 9 10 9 8 7 5 3 3 3 3 3 3 4 5 6 6 6 4 4 4 4 3 3 3 2 2 2 2
9 9 7 5 4 2 2 4 6 5 5 6 8 9 10 11 12 11 11 10 10 9 9 10 8 8 7 4 4 3 4 4 4 3 5 6 7 6 6 6 5 5 4 4 4 3 2 2 2
10 6 8 6 2 4 4 5 7 6 5 5 7 8 10 11 12 12 11 10 10 9 10 10 9 9 8 7 4 4 4 4 4 4 4 5 6 7 6 6 6 6 6 5 5 5 5 3 3
8 7 6 7 6 5 5 3 8 5 4 6 8 8 9 9 10 9 10 10 10 10 10 10 10 10 8 7 5 6 5 5 5 4 4 4 5 6 7 7 7 7 6 6 7 7 5 5 4
7 6 7 7 8 8 6 3 7 4 5 8 8 8 9 9 9 9 10 10 10 10 9 9 9 9 9 8 7 6 5 5 4 5 5 5 4 5 5 6 6 6 5 6 7 6 7 6 5
6 8 9 8 7 7 3 2 6 5 7 8 8 8 8 8 8 8 9 8 8 8 8 8 8 8 8 8 7 6 6 6 6 6 5 4 3 3 4 5 5 6 5 6 7 7 8 7 6
6 7 5 4 5 1 3 2 7 7 6 6 7 7 7 7 8 8 8 8 8 8 8 8 8 8 8 8 7 7 6 6 6 6 5 4 3 2 3 3 4 4 5 6 6 7 7 7 7
7 6 6 6 4 2 4 3 7 5 4 4 5 5 6 7 6 7 7 7 7 8 7 7 8 8 8 8 7 7 7 5 4 5 4 3 2 2 2 2 2 3 4 5 5 5 6 6 6
8 6 5 6 9 5 5 7 8 5 3 4 5 6 7 7 6 6 6 6 6 6 6 6 6 7 7 8 8 7 7 6 6 6 5 4 3 2 2 2 2 1 1 2 3 4 5 5 6
2 5 5 5 6 5 1 4 4 3 4 5 5 6 6 5 6 5 5 5 5 5 5 5 5 6 6 6 6 6 6 6 5 5 6 6 6 5 4 4 3 2 1 0 1 2 4 5 5
5 3 4 5 2 3 4 3 5 4 3 3 4 5 5 5 4 4 4 4 4 5 5 5 6 6 6 6 6 6 6 6 6 5 6 6 6 6 6 5 5 4 3 2 1 1 1 3 3
2 5 6 5 5 2 2 3 5 3 1 2 4 5 4 4 3 4 4 4 4 5 5 5 6 6 5 6 6 6 7 7 7 7 7 6 6 6 6 6 5 6 5 4 2 1 1 2 3
Wind_Direction
240 232 230 253 260 78 65 58 52 35 39 47 44 55 68 57 50 80 151 133 119 120 126 131 128 127 125 124 125 123 122 122 122 121 120 118 113 106 100 97 92 87 84 80 77 79 82 83 77
256 227 240 251 314 77 67 61 60 43 40 53 58 56 66 62 72 99 130 114 121 124 136 132 133 132 131 131 132 132 129 128 126 125 124 122 117 112 108 103 96 91 89 88 89 90 90 87 83
259 240 251 238 73 74 73 61 63 60 46 58 74 61 47 49 80 103 114 124 123 126 126 127 139 138 137 137 137 136 136 135 134 133 134 132 131 125 119 114 106 96 93 89 89 97 101 100 101
255 246 259 57 77 73 71 75 65 62 54 56 65 69 58 43 82 110 130 129 120 121 121 133 142 144 146 146 146 146 148 148 149 149 148 148 147 142 135 128 119 110 101 93 96 107 118 120 119
242 282 26 66 76 65 60 65 72 68 55 66 82 82 72 68 87 115 134 125 128 127 128 140 148 152 156 159 162 164 165 166 168 166 165 165 165 164 156 150 135 123 121 112 112 129 144 148 151
274 62 65 80 85 69 61 57 61 61 50 43 84 91 75 69 85 102 111 121 131 133 137 141 156 163 168 174 176 178 180 182 183 183 181 181 180 177 175 168 153 142 130 133 145 164 170 168 175
284 263 147 129 100 75 63 64 60 59 45 27 45 89 83 60 63 86 91 92 110 128 139 151 163 172 179 184 187 189 191 193 195 194 192 193 194 195 196 190 179 170 167 169 178 190 193 193 198
290 327 22 65 94 73 62 68 63 57 50 34 33 59 69 47 51 71 66 58 67 97 130 157 168 175 180 187 193 195 196 198 201 202 202 203 204 208 209 202 195 191 192 194 196 201 207 208 210
268 48 58 55 91 75 59 78 76 69 64 56 54 53 48 41 52 57 51 43 37 33 37 73 142 167 187 188 190 193 198 201 203 206 210 209 212 209 206 215 186 191 197 203 206 210 213 214 217
23 69 65 65 85 90 60 45 44 75 53 43 42 42 39 42 45 46 41 35 29 20 14 19 14 22 193 207 168 186 191 191 204 207 200 208 224 215 209 190 180 189 198 206 214 218 221 225 218
50 66 83 76 90 104 93 60 33 73 51 35 28 28 32 39 41 38 34 28 23 14 9 4 2 359 5 16 151 178 171 185 212 220 204 211 226 206 190 168 178 191 201 208 212 217 225 223 220
80 51 65 67 63 70 72 79 63 56 61 50 46 35 36 37 34 29 27 18 17 15 7 359 359 354 349 353 352 190 176 185 211 225 217 209 223 215 196 188 183 188 197 206 196 211 220 225 215
106 93 86 86 86 86 86 84 80 68 70 62 54 46 38 33 28 24 21 14 12 10 2 355 351 353 347 343 337 331 288 218 221 218 233 214 212 221 219 205 190 196 195 195 204 216 224 221 212
124 129 123 117 107 100 95 86 76 66 65 61 52 46 37 30 21 16 13 2 357 355 350 349 341 343 339 334 329 320 314 279 256 230 246 239 212 229 235 229 200 208 214 187 194 225 231 221 212
139 150 145 142 139 141 120 79 69 69 67 54 41 44 30 23 18 17 9 354 351 342 334 334 321 332 324 314 309 308 302 295 262 245 254 258 229 221 244 240 214 213 226 222 203 229 219 208 200
195 189 161 135 164 167 192 85 77 50 36 46 29 27 19 22 14 17 8 355 350 340 332 327 328 330 316 303 292 283 275 271 263 244 244 255 254 229 235 247 233 227 217 230 210 246 220 209 202
222 242 174 159 87 84 77 94 89 49 6 22 21 13 14 16 14 13 5 356 347 336 331 332 332 322 311 301 285 270 263 259 258 248 235 241 249 246 225 231 246 241 234 228 228 216 217 220 210
322 298 277 143 86 69 85 107 106 58 24 17 13 8 15 13 8 10 2 354 347 344 341 337 326 314 308 296 292 283 265 255 252 246 235 236 239 243 233 225 232 236 228 233 239 216 224 232 217
319 311 308 95 95 52 98 125 118 73 38 19 11 7 9 7 0 8 358 355 351 349 343 336 327 324 319 309 300 298 294 286 264 245 235 229 230 224 219 222 219 211 210 216 224 224 223 230 238
299 304 315 90 87 1 194 160 124 97 64 34 14 6 9 2 356 1 356 356 352 348 342 332 332 328 324 313 303 288 286 280 266 252 242 230 229 219 217 211 208 208 205 210 209 216 221 228 229
317 347 347 340 347 263 249 195 145 129 89 51 28 17 11 0 355 354 352 354 348 348 345 338 333 329 325 320 310 303 297 288 283 264 250 234 226 222 215 213 202 206 201 200 199 201 204 213 240
333 27 333 303 281 245 217 250 138 134 83 41 26 19 10 2 356 352 354 355 352 351 347 340 339 336 331 327 318 310 296 291 292 294 281 271 246 227 218 216 209 206 201 200 202 198 196 193 222
334 333 292 275 266 272 241 259 126 113 36 25 17 13 11 3 357 358 358 354 353 351 348 343 344 343 341 335 324 314 306 300 298 299 289 277 266 249 230 218 213 209 202 204 207 202 195 192 201
287 271 251 243 253 256 248 283 103 59 24 9 8 12 9 1 359 1 357 355 353 353 352 348 348 346 343 341 338 333 324 319 316 311 304 300 278 259 245 229 217 214 205 207 205 207 202 194 198
271 301 284 229 212 173 61 55 82 66 36 13 6 9 8 7 3 1 1 358 356 357 358 355 357 354 351 349 349 346 338 328 320 311 303 300 292 283 267 251 227 220 213 207 199 200 200 196 196
316 310 326 321 334 127 153 83 97 86 67 29 14 14 8 8 7 2 0 359 355 358 359 359 359 357 357 354 351 349 351 342 327 320 318 323 309 292 296 284 256 229 217 209 200 202 198 195 197
327 351 351 301 292 288 119 115 131 132 82 34 15 15 11 6 5 3 360 1 359 357 355 359 0 1 358 356 351 349 352 351 347 345 344 340 331 330 335 329 308 273 226 204 186 196 198 192 193
326 319 304 297 336 326 70 97 92 82 33 19 12 11 9 3 2 5 4 7 359 352 346 4 8 6 1 358 354 352 354 352 351 358 1 358 358 4 16 10 2 12 350 196 182 197 198 194 192
337 311 331 299 292 328 338 61 74 64 39 7 7 12 4 3 1 6 8 10 3 1 3 18 15 14 5 1 357 357 4 3 8 10 7 5 7 15 22 24 22 24 21 23 95 163 168 186 187
348 355 338 329 342 315 287 98 99 110 89 22 14 9 3 4 7 20 17 12 7 7 8 18 18 16 10 5 5 11 18 17 19 20 16 11 16 17 21 25 28 29 24 24 29 72 148 167 180